CICERO 7 (43143 NORAD) Tracking and Keplerian Element Data

This shows tracking and keplerian element data for the satellite.

Feedback or suggestion? Click here.




ElementValue
Catalog43143
NameCICERO 7
Epoch Orbit7604
Epoch Day146.78951724
Epoch Year2019
RAAN215.0695
Inclination97.4888
Eccentricity0.0007217
Argument of Perigee356.9621
Mean Anonmoly3.1571
Mean Motion15.24184068
Decay Rate8.81E-06
L11 43143U 18004AJ 19146.78951724 .00000881 00000-0 39158-4 0 9999
L22 43143 97.4888 215.0695 0007217 356.9621 3.1571 15.24184068 76041

Live tracking and technical data element details for CICERO 7 (NORAD 43143). CICERO 7 can be tracked NOW for your location showing map with azimuth and elevation plus other details from your city location.

Track the satellite on the map from your city or location and see movement details for azimuth, elevation, latitude, longitude, range, height, and movement on the map or in text.







IsCatalogInMostPopularTable: catalog: 43143, numindb: 229
Update: records affected: 1



GetName: 43143 CICERO 7

Hit Count: updated at: Mon, 27 May 2019 03:09:56 GMT